When you browse on this site, cookies collect data to enhance your experience and personalize the content and advertising you see.
Visit our Privacy Policy to learn more. By continuing to use the site, you agree to this use of cookies and data.
  • In Österreich
  • Länderverzeichnis
  • Für 7 Tage
  • Wassertemperatur
  • Satellitenkarten
  • Wetterkarte
  • News
  • Widgets
  • user-avatar
    Anmelden

    Stündliche Wetter Islamabad

    Heute, 11 Dezember, Dienstag

    Zeit Temperatur Niederschläge Wind Luftdruck Luftfeuchtigkeit
    00:00 +12°C° 0 mm 2 m/S 718 mmHg 65%
    01:00 +10°C° 0 mm 2 m/S 718 mmHg 64%
    02:00 +10°C° 0 mm 2 m/S 718 mmHg 63%
    03:00 +10°C° 0 mm 2 m/S 718 mmHg 62%
    04:00 +10°C° 0 mm 2 m/S 718 mmHg 60%
    05:00 +11°C° 0 mm 1 m/S 717 mmHg 60%
    06:00 +11°C° 0.1 mm 1 m/S 718 mmHg 59%
    07:00 +10°C° 0.1 mm 2 m/S 718 mmHg 58%
    08:00 +10°C° 0.1 mm 2 m/S 718 mmHg 57%
    09:00 +13°C° 0.1 mm 2 m/S 719 mmHg 50%
    10:00 +15°C° 0.1 mm 1 m/S 719 mmHg 44%
    11:00 +16°C° 0.1 mm 1 m/S 719 mmHg 37%
    12:00 +18°C° 0 mm 1 m/S 719 mmHg 36%
    13:00 +17°C° 0 mm 2 m/S 719 mmHg 34%
    14:00 +18°C° 0 mm 2 m/S 718 mmHg 33%
    15:00 +18°C° 0 mm 1 m/S 718 mmHg 36%
    16:00 +16°C° 0 mm 1 m/S 718 mmHg 40%
    17:00 +15°C° 0 mm 1 m/S 718 mmHg 43%
    18:00 +14°C° 0.1 mm 1 m/S 718 mmHg 43%
    19:00 +14°C° 0.1 mm 2 m/S 718 mmHg 44%
    20:00 +13°C° 0.1 mm 2 m/S 718 mmHg 44%
    21:00 +13°C° 0 mm 2 m/S 718 mmHg 45%
    22:00 +12°C° 0 mm 2 m/S 718 mmHg 45%
    23:00 +11°C° 0 mm 3 m/S 718 mmHg 45%

    Morgen, 12 Dezember, Mittwoch

    Zeit Temperatur Niederschläge Wind Luftdruck Luftfeuchtigkeit
    00:00 +11°C° 0 mm 3 m/S 718 mmHg 46%
    01:00 +10°C° 0 mm 3 m/S 718 mmHg 46%
    02:00 +10°C° 0 mm 3 m/S 718 mmHg 46%
    03:00 +10°C° 0 mm 3 m/S 718 mmHg 46%
    04:00 +9°C° 0 mm 3 m/S 718 mmHg 46%
    05:00 +9°C° 0 mm 3 m/S 718 mmHg 46%
    06:00 +9°C° 0 mm 3 m/S 718 mmHg 45%
    07:00 +9°C° 0 mm 3 m/S 719 mmHg 45%
    08:00 +10°C° 0 mm 3 m/S 719 mmHg 44%
    09:00 +13°C° 0 mm 2 m/S 719 mmHg 38%
    10:00 +15°C° 0 mm 2 m/S 720 mmHg 33%
    11:00 +17°C° 0 mm 2 m/S 721 mmHg 27%
    12:00 +17°C° 0 mm 2 m/S 720 mmHg 26%
    13:00 +18°C° 0 mm 2 m/S 720 mmHg 25%
    14:00 +18°C° 0 mm 2 m/S 720 mmHg 24%
    15:00 +17°C° 0 mm 2 m/S 719 mmHg 27%
    16:00 +16°C° 0 mm 2 m/S 719 mmHg 30%
    17:00 +15°C° 0 mm 2 m/S 719 mmHg 32%
    18:00 +14°C° 0 mm 2 m/S 719 mmHg 33%
    19:00 +13°C° 0 mm 2 m/S 719 mmHg 33%
    20:00 +13°C° 0 mm 2 m/S 720 mmHg 34%
    21:00 +12°C° 0 mm 2 m/S 720 mmHg 34%
    22:00 +12°C° 0 mm 2 m/S 720 mmHg 35%
    23:00 +10°C° 0 mm 2 m/S 720 mmHg 35%

    übermorgen, 13 Dezember, Donnerstag

    Zeit Temperatur Niederschläge Wind Luftdruck Luftfeuchtigkeit
    00:00 +10°C° 0 mm 3 m/S 720 mmHg 35%
    01:00 +10°C° 0 mm 3 m/S 720 mmHg 36%
    02:00 +9°C° 0 mm 3 m/S 720 mmHg 36%
    03:00 +9°C° 0 mm 3 m/S 720 mmHg 35%
    04:00 +9°C° 0 mm 3 m/S 720 mmHg 35%
    05:00 +8°C° 0 mm 3 m/S 720 mmHg 35%
    06:00 +8°C° 0 mm 3 m/S 720 mmHg 34%
    07:00 +9°C° 0 mm 3 m/S 720 mmHg 34%
    08:00 +9°C° 0 mm 2 m/S 721 mmHg 33%
    09:00 +12°C° 0 mm 2 m/S 721 mmHg 29%
    10:00 +14°C° 0 mm 2 m/S 722 mmHg 25%
    11:00 +16°C° 0 mm 2 m/S 722 mmHg 21%
    12:00 +17°C° 0 mm 2 m/S 722 mmHg 20%
    13:00 +18°C° 0 mm 2 m/S 721 mmHg 19%
    14:00 +18°C° 0 mm 2 m/S 721 mmHg 18%
    15:00 +17°C° 0 mm 2 m/S 720 mmHg 21%
    16:00 +15°C° 0 mm 2 m/S 720 mmHg 23%
    17:00 +14°C° 0 mm 2 m/S 720 mmHg 26%
    18:00 +13°C° 0 mm 2 m/S 720 mmHg 26%
    19:00 +13°C° 0 mm 2 m/S 720 mmHg 26%
    20:00 +12°C° 0 mm 2 m/S 721 mmHg 26%
    21:00 +10°C° 0 mm 2 m/S 721 mmHg 27%
    22:00 +10°C° 0 mm 2 m/S 721 mmHg 27%
    23:00 +10°C° 0 mm 2 m/S 721 mmHg 28%

    14 Dezember, Freitag

    Zeit Temperatur Niederschläge Wind Luftdruck Luftfeuchtigkeit
    00:00 +9°C° 0 mm 2 m/S 721 mmHg 28%
    01:00 +9°C° 0 mm 2 m/S 721 mmHg 29%
    02:00 +9°C° 0 mm 2 m/S 721 mmHg 29%
    03:00 +8°C° 0 mm 2 m/S 720 mmHg 29%
    04:00 +8°C° 0 mm 2 m/S 720 mmHg 29%
    05:00 +8°C° 0 mm 2 m/S 720 mmHg 29%
    06:00 +8°C° 0 mm 2 m/S 721 mmHg 28%
    07:00 +8°C° 0 mm 2 m/S 721 mmHg 28%
    08:00 +8°C° 0 mm 2 m/S 722 mmHg 28%
    09:00 +12°C° 0 mm 2 m/S 722 mmHg 25%
    10:00 +14°C° 0 mm 2 m/S 722 mmHg 21%
    11:00 +17°C° 0 mm 2 m/S 723 mmHg 18%
    12:00 +17°C° 0 mm 2 m/S 722 mmHg 17%
    13:00 +18°C° 0 mm 2 m/S 722 mmHg 16%
    14:00 +19°C° 0 mm 2 m/S 721 mmHg 15%
    15:00 +17°C° 0 mm 2 m/S 721 mmHg 18%
    16:00 +16°C° 0 mm 2 m/S 721 mmHg 20%
    17:00 +14°C° 0 mm 2 m/S 721 mmHg 23%
    18:00 +13°C° 0 mm 2 m/S 721 mmHg 23%
    19:00 +13°C° 0 mm 2 m/S 722 mmHg 23%
    20:00 +12°C° 0 mm 2 m/S 722 mmHg 23%
    21:00 +10°C° 0 mm 2 m/S 722 mmHg 23%
    22:00 +10°C° 0 mm 2 m/S 722 mmHg 23%
    23:00 +9°C° 0 mm 3 m/S 722 mmHg 23%

    15 Dezember, Samstag

    Zeit Temperatur Niederschläge Wind Luftdruck Luftfeuchtigkeit
    00:00 +9°C° 0 mm 3 m/S 722 mmHg 23%
    01:00 +9°C° 0 mm 3 m/S 721 mmHg 22%
    02:00 +8°C° 0 mm 3 m/S 721 mmHg 22%
    03:00 +8°C° 0 mm 3 m/S 721 mmHg 21%
    04:00 +8°C° 0 mm 3 m/S 721 mmHg 20%
    05:00 +8°C° 0 mm 3 m/S 721 mmHg 20%
    06:00 +8°C° 0 mm 2 m/S 721 mmHg 20%
    07:00 +8°C° 0 mm 2 m/S 721 mmHg 20%
    08:00 +8°C° 0 mm 2 m/S 721 mmHg 20%
    09:00 +12°C° 0 mm 2 m/S 722 mmHg 18%
    10:00 +15°C° 0 mm 2 m/S 722 mmHg 15%
    11:00 +18°C° 0 mm 1 m/S 722 mmHg 12%
    12:00 +19°C° 0 mm 1 m/S 722 mmHg 12%
    13:00 +19°C° 0 mm 2 m/S 722 mmHg 12%
    14:00 +20°C° 0 mm 2 m/S 721 mmHg 12%
    15:00 +18°C° 0 mm 2 m/S 721 mmHg 14%
    16:00 +16°C° 0 mm 1 m/S 721 mmHg 17%
    17:00 +14°C° 0 mm 1 m/S 721 mmHg 20%
    18:00 +13°C° 0 mm 1 m/S 721 mmHg 20%
    19:00 +13°C° 0 mm 2 m/S 722 mmHg 20%
    20:00 +12°C° 0 mm 2 m/S 722 mmHg 20%
    21:00 +12°C° 0 mm 2 m/S 722 mmHg 20%
    22:00 +10°C° 0 mm 2 m/S 722 mmHg 20%
    23:00 +10°C° 0 mm 2 m/S 722 mmHg 21%

    16 Dezember, Sonntag

    Zeit Temperatur Niederschläge Wind Luftdruck Luftfeuchtigkeit
    00:00 +10°C° 0 mm 2 m/S 722 mmHg 20%
    01:00 +9°C° 0 mm 2 m/S 722 mmHg 20%
    02:00 +9°C° 0 mm 2 m/S 721 mmHg 20%
    03:00 +9°C° 0 mm 2 m/S 721 mmHg 19%
    04:00 +9°C° 0 mm 2 m/S 721 mmHg 19%
    05:00 +9°C° 0 mm 3 m/S 721 mmHg 18%
    06:00 +9°C° 0 mm 3 m/S 721 mmHg 18%
    07:00 +9°C° 0 mm 3 m/S 722 mmHg 18%
    08:00 +9°C° 0 mm 3 m/S 722 mmHg 18%
    09:00 +12°C° 0 mm 3 m/S 722 mmHg 16%
    10:00 +16°C° 0 mm 3 m/S 722 mmHg 14%
    11:00 +19°C° 0 mm 2 m/S 722 mmHg 12%
    12:00 +20°C° 0 mm 3 m/S 722 mmHg 12%
    13:00 +21°C° 0 mm 3 m/S 721 mmHg 12%
    14:00 +21°C° 0 mm 3 m/S 721 mmHg 12%
    15:00 +19°C° 0 mm 3 m/S 720 mmHg 14%
    16:00 +17°C° 0 mm 2 m/S 720 mmHg 17%
    17:00 +15°C° 0 mm 2 m/S 719 mmHg 20%
    18:00 +15°C° 0 mm 2 m/S 719 mmHg 19%
    19:00 +14°C° 0 mm 2 m/S 720 mmHg 19%
    20:00 +13°C° 0 mm 2 m/S 720 mmHg 19%
    21:00 +12°C° 0 mm 2 m/S 720 mmHg 19%
    22:00 +12°C° 0 mm 2 m/S 720 mmHg 19%
    23:00 +12°C° 0 mm 2 m/S 720 mmHg 19%
    Mehr zeigen